Year,Month,Day,Hour,Minute,Value (Times are PST for temperature in C)
2014,08,05,00,00,19.40
2014,08,05,00,01,19.40
2014,08,05,00,02,19.40
2014,08,05,00,03,19.40
2014,08,05,00,04,19.40
2014,08,05,00,05,19.40
2014,08,05,00,06,19.40
2014,08,05,00,07,19.30
2014,08,05,00,08,19.30
2014,08,05,00,09,19.30
2014,08,05,00,10,19.30
2014,08,05,00,11,19.20
2014,08,05,00,12,19.20
2014,08,05,00,13,19.20
2014,08,05,00,14,19.20
2014,08,05,00,15,19.20
2014,08,05,00,16,19.20
2014,08,05,00,17,19.10
2014,08,05,00,18,19.10
2014,08,05,00,19,19.10
2014,08,05,00,20,19.00
2014,08,05,00,21,18.90
2014,08,05,00,22,18.90
2014,08,05,00,23,18.90
2014,08,05,00,24,18.80
2014,08,05,00,25,18.80
2014,08,05,00,26,18.80
2014,08,05,00,27,18.80
2014,08,05,00,28,18.80
2014,08,05,00,29,18.80
2014,08,05,00,30,18.80
2014,08,05,00,31,18.70
2014,08,05,00,32,18.70
2014,08,05,00,33,18.70
2014,08,05,00,34,18.70
2014,08,05,00,35,18.70
2014,08,05,00,36,18.70
2014,08,05,00,37,18.60
2014,08,05,00,38,18.60
2014,08,05,00,39,18.60
2014,08,05,00,40,18.50
2014,08,05,00,41,18.50
2014,08,05,00,42,18.50
2014,08,05,00,43,18.40
2014,08,05,00,44,18.40
2014,08,05,00,45,18.30
2014,08,05,00,46,18.30
2014,08,05,00,47,18.20
2014,08,05,00,48,18.20
2014,08,05,00,49,18.20
2014,08,05,00,50,18.10
2014,08,05,00,51,18.10
2014,08,05,00,52,18.10
2014,08,05,00,53,18.10
2014,08,05,00,54,18.10
2014,08,05,00,55,18.00
2014,08,05,00,56,18.00
2014,08,05,00,57,18.00
2014,08,05,00,58,18.00
2014,08,05,00,59,17.90
2014,08,05,01,00,17.90
2014,08,05,01,01,17.90
2014,08,05,01,02,17.90
2014,08,05,01,03,17.90
2014,08,05,01,04,17.90
2014,08,05,01,05,17.90
2014,08,05,01,06,17.90
2014,08,05,01,07,17.90
2014,08,05,01,08,17.90
2014,08,05,01,09,17.90
2014,08,05,01,10,17.90
2014,08,05,01,11,17.90
2014,08,05,01,12,17.90
2014,08,05,01,13,17.90
2014,08,05,01,14,17.90
2014,08,05,01,15,17.90
2014,08,05,01,16,17.90
2014,08,05,01,17,17.90
2014,08,05,01,18,17.90
2014,08,05,01,19,17.90
2014,08,05,01,20,17.80
2014,08,05,01,21,17.80
2014,08,05,01,22,17.80
2014,08,05,01,23,17.80
2014,08,05,01,24,17.80
2014,08,05,01,25,17.70
2014,08,05,01,26,17.70
2014,08,05,01,27,17.70
2014,08,05,01,28,17.60
2014,08,05,01,29,17.60
2014,08,05,01,30,17.60
2014,08,05,01,31,17.60
2014,08,05,01,32,17.60
2014,08,05,01,33,17.50
2014,08,05,01,34,17.50
2014,08,05,01,35,17.40
2014,08,05,01,36,17.40
2014,08,05,01,37,17.40
2014,08,05,01,38,17.40
2014,08,05,01,39,17.40
2014,08,05,01,40,17.30
2014,08,05,01,41,17.30
2014,08,05,01,42,17.30
2014,08,05,01,43,17.30
2014,08,05,01,44,17.30
2014,08,05,01,45,17.40
2014,08,05,01,46,17.40
2014,08,05,01,47,17.40
2014,08,05,01,48,17.30
2014,08,05,01,49,17.30
2014,08,05,01,50,17.30
2014,08,05,01,51,17.30
2014,08,05,01,52,17.30
2014,08,05,01,53,17.30
2014,08,05,01,54,17.40
2014,08,05,01,55,17.40
2014,08,05,01,56,17.40
2014,08,05,01,57,17.30
2014,08,05,01,58,17.30
2014,08,05,01,59,17.30
2014,08,05,02,00,17.30
2014,08,05,02,01,17.30
2014,08,05,02,02,17.30
2014,08,05,02,03,17.20
2014,08,05,02,04,17.20
2014,08,05,02,05,17.20
2014,08,05,02,06,17.20
2014,08,05,02,07,17.10
2014,08,05,02,08,17.10
2014,08,05,02,09,17.10
2014,08,05,02,10,17.10
2014,08,05,02,11,17.10
2014,08,05,02,12,17.00
2014,08,05,02,13,17.00
2014,08,05,02,14,16.90
2014,08,05,02,15,16.90
2014,08,05,02,16,16.90
2014,08,05,02,17,16.90
2014,08,05,02,18,16.80
2014,08,05,02,19,16.80
2014,08,05,02,20,16.80
2014,08,05,02,21,16.70
2014,08,05,02,22,16.70
2014,08,05,02,23,16.70
2014,08,05,02,24,16.70
2014,08,05,02,25,16.70
2014,08,05,02,26,16.70
2014,08,05,02,27,16.70
2014,08,05,02,28,16.70
2014,08,05,02,29,16.70
2014,08,05,02,30,16.70
2014,08,05,02,31,16.70
2014,08,05,02,32,16.70
2014,08,05,02,33,16.70
2014,08,05,02,34,16.70
2014,08,05,02,35,16.70
2014,08,05,02,36,16.70
2014,08,05,02,37,16.70
2014,08,05,02,38,16.70
2014,08,05,02,39,16.70
2014,08,05,02,40,16.60
2014,08,05,02,41,16.60
2014,08,05,02,42,16.60
2014,08,05,02,43,16.60
2014,08,05,02,44,16.50
2014,08,05,02,45,16.50
2014,08,05,02,46,16.40
2014,08,05,02,47,16.40
2014,08,05,02,48,16.30
2014,08,05,02,49,16.30
2014,08,05,02,50,16.30
2014,08,05,02,51,16.20
2014,08,05,02,52,16.20
2014,08,05,02,53,16.20
2014,08,05,02,54,16.20
2014,08,05,02,55,16.10
2014,08,05,02,56,16.10
2014,08,05,02,57,16.00
2014,08,05,02,58,16.00
2014,08,05,02,59,16.00
2014,08,05,03,00,16.00
2014,08,05,03,01,15.90
2014,08,05,03,02,15.90
2014,08,05,03,03,15.90
2014,08,05,03,04,15.90
2014,08,05,03,05,15.90
2014,08,05,03,06,15.90
2014,08,05,03,07,15.90
2014,08,05,03,08,15.90
2014,08,05,03,09,15.90
2014,08,05,03,10,15.90
2014,08,05,03,11,16.00
2014,08,05,03,12,16.00
2014,08,05,03,13,16.00
2014,08,05,03,14,16.10
2014,08,05,03,15,16.10
2014,08,05,03,16,16.20
2014,08,05,03,17,16.20
2014,08,05,03,18,16.20
2014,08,05,03,19,16.20
2014,08,05,03,20,16.10
2014,08,05,03,21,16.10
2014,08,05,03,22,16.10
2014,08,05,03,23,16.00
2014,08,05,03,24,16.00
2014,08,05,03,25,15.90
2014,08,05,03,26,15.90
2014,08,05,03,27,15.90
2014,08,05,03,28,15.90
2014,08,05,03,29,15.90
2014,08,05,03,30,15.80
2014,08,05,03,31,15.80
2014,08,05,03,32,15.70
2014,08,05,03,33,15.70
2014,08,05,03,34,15.70
2014,08,05,03,35,15.60
2014,08,05,03,36,15.60
2014,08,05,03,37,15.60
2014,08,05,03,38,15.60
2014,08,05,03,39,15.60
2014,08,05,03,40,15.70
2014,08,05,03,41,15.70
2014,08,05,03,42,15.70
2014,08,05,03,43,15.70
2014,08,05,03,44,15.80
2014,08,05,03,45,15.80
2014,08,05,03,46,15.80
2014,08,05,03,47,15.80
2014,08,05,03,48,15.80
2014,08,05,03,49,15.80
2014,08,05,03,50,15.80
2014,08,05,03,51,15.80
2014,08,05,03,52,15.80
2014,08,05,03,53,15.80
2014,08,05,03,54,15.80
2014,08,05,03,55,15.80
2014,08,05,03,56,15.80
2014,08,05,03,57,15.70
2014,08,05,03,58,15.70
2014,08,05,03,59,15.60
2014,08,05,04,00,15.60
2014,08,05,04,01,15.50
2014,08,05,04,02,15.50
2014,08,05,04,03,15.40
2014,08,05,04,04,15.40
2014,08,05,04,05,15.30
2014,08,05,04,06,15.30
2014,08,05,04,07,15.30
2014,08,05,04,08,15.30
2014,08,05,04,09,15.30
2014,08,05,04,10,15.30
2014,08,05,04,11,15.30
2014,08,05,04,12,15.30
2014,08,05,04,13,15.30
2014,08,05,04,14,15.30
2014,08,05,04,15,15.20
2014,08,05,04,16,15.20
2014,08,05,04,17,15.20
2014,08,05,04,18,15.20
2014,08,05,04,19,15.10
2014,08,05,04,20,15.10
2014,08,05,04,21,15.10
2014,08,05,04,22,15.10
2014,08,05,04,23,15.10
2014,08,05,04,24,15.20
2014,08,05,04,25,15.20
2014,08,05,04,26,15.30
2014,08,05,04,27,15.30
2014,08,05,04,28,15.30
2014,08,05,04,29,15.40
2014,08,05,04,30,15.40
2014,08,05,04,31,15.40
2014,08,05,04,32,15.40
2014,08,05,04,33,15.50
2014,08,05,04,34,15.60
2014,08,05,04,35,15.60
2014,08,05,04,36,15.60
2014,08,05,04,37,15.50
2014,08,05,04,38,15.40
2014,08,05,04,39,15.40
2014,08,05,04,40,15.40
2014,08,05,04,41,15.40
2014,08,05,04,42,15.40
2014,08,05,04,43,15.40
2014,08,05,04,44,15.30
2014,08,05,04,45,15.40
2014,08,05,04,46,15.30
2014,08,05,04,47,15.30
2014,08,05,04,48,15.30
2014,08,05,04,49,15.30
2014,08,05,04,50,15.30
2014,08,05,04,51,15.20
2014,08,05,04,52,15.20
2014,08,05,04,53,15.10
2014,08,05,04,54,15.10
2014,08,05,04,55,15.00
2014,08,05,04,56,15.00
2014,08,05,04,57,15.00
2014,08,05,04,58,15.00
2014,08,05,04,59,15.00
2014,08,05,05,00,15.00
2014,08,05,05,01,15.00
2014,08,05,05,02,15.00
2014,08,05,05,03,14.90
2014,08,05,05,04,14.90
2014,08,05,05,05,14.90
2014,08,05,05,06,14.90
2014,08,05,05,07,14.80
2014,08,05,05,08,14.80
2014,08,05,05,09,14.70
2014,08,05,05,10,14.70
2014,08,05,05,11,14.60
2014,08,05,05,12,14.60
2014,08,05,05,13,14.60
2014,08,05,05,14,14.60
2014,08,05,05,15,14.60
2014,08,05,05,16,14.70
2014,08,05,05,17,14.70
2014,08,05,05,18,14.70
2014,08,05,05,19,14.70
2014,08,05,05,20,14.70
2014,08,05,05,21,14.60
2014,08,05,05,22,14.60
2014,08,05,05,23,14.60
2014,08,05,05,24,14.60
2014,08,05,05,25,14.60
2014,08,05,05,26,14.60
2014,08,05,05,27,14.60
2014,08,05,05,28,14.60
2014,08,05,05,29,14.60
2014,08,05,05,30,14.60
2014,08,05,05,31,14.60
2014,08,05,05,32,14.60
2014,08,05,05,33,14.50
2014,08,05,05,34,14.50
2014,08,05,05,35,14.50
2014,08,05,05,36,14.50
2014,08,05,05,37,14.50
2014,08,05,05,38,14.50
2014,08,05,05,39,14.50
2014,08,05,05,40,14.50
2014,08,05,05,41,14.50
2014,08,05,05,42,14.50
2014,08,05,05,43,14.50
2014,08,05,05,44,14.50
2014,08,05,05,45,14.50
2014,08,05,05,46,14.50
2014,08,05,05,47,14.40
2014,08,05,05,48,14.40
2014,08,05,05,49,14.40
2014,08,05,05,50,14.40
2014,08,05,05,51,14.40
2014,08,05,05,52,14.40
2014,08,05,05,53,14.30
2014,08,05,05,54,14.30
2014,08,05,05,55,14.30
2014,08,05,05,56,14.30
2014,08,05,05,57,14.30
2014,08,05,05,58,14.30
2014,08,05,05,59,14.30
2014,08,05,06,00,14.30
2014,08,05,06,01,14.30
2014,08,05,06,02,14.30
2014,08,05,06,03,14.30
2014,08,05,06,04,14.30
2014,08,05,06,05,14.30
2014,08,05,06,06,14.30
2014,08,05,06,07,14.20
2014,08,05,06,08,14.20
2014,08,05,06,09,14.20
2014,08,05,06,10,14.20
2014,08,05,06,11,14.20
2014,08,05,06,12,14.20
2014,08,05,06,13,14.20
2014,08,05,06,14,14.20
2014,08,05,06,15,14.30
2014,08,05,06,16,14.30
2014,08,05,06,17,14.30
2014,08,05,06,18,14.30
2014,08,05,06,19,14.30
2014,08,05,06,20,14.40
2014,08,05,06,21,14.40
2014,08,05,06,22,14.40
2014,08,05,06,23,14.40
2014,08,05,06,24,14.50
2014,08,05,06,25,14.50
2014,08,05,06,26,14.50
2014,08,05,06,27,14.60
2014,08,05,06,28,14.60
2014,08,05,06,29,14.70
2014,08,05,06,30,14.70
2014,08,05,06,31,14.80
2014,08,05,06,32,14.90
2014,08,05,06,33,15.00
2014,08,05,06,34,15.00
2014,08,05,06,35,15.10
2014,08,05,06,36,15.20
2014,08,05,06,37,15.30
2014,08,05,06,38,15.40
2014,08,05,06,39,15.50
2014,08,05,06,40,15.60
2014,08,05,06,41,15.70
2014,08,05,06,42,15.70
2014,08,05,06,43,15.80
2014,08,05,06,44,15.80
2014,08,05,06,45,15.80
2014,08,05,06,46,15.90
2014,08,05,06,47,15.90
2014,08,05,06,48,16.00
2014,08,05,06,49,16.00
2014,08,05,06,50,16.10
2014,08,05,06,51,16.20
2014,08,05,06,52,16.20
2014,08,05,06,53,16.30
2014,08,05,06,54,16.30
2014,08,05,06,55,16.40
2014,08,05,06,56,16.40
2014,08,05,06,57,16.50
2014,08,05,06,58,16.60
2014,08,05,06,59,16.60
2014,08,05,07,00,16.70
2014,08,05,07,01,16.70
2014,08,05,07,02,16.80
2014,08,05,07,03,16.80
2014,08,05,07,04,16.80
2014,08,05,07,05,16.80
2014,08,05,07,06,16.90
2014,08,05,07,07,16.90
2014,08,05,07,08,17.00
2014,08,05,07,09,17.10
2014,08,05,07,10,17.10
2014,08,05,07,11,17.20
2014,08,05,07,12,17.20
2014,08,05,07,13,17.20
2014,08,05,07,14,17.30
2014,08,05,07,15,17.30
2014,08,05,07,16,17.30
2014,08,05,07,17,17.30
2014,08,05,07,18,17.40
2014,08,05,07,19,17.40
2014,08,05,07,20,17.40
2014,08,05,07,21,17.50
2014,08,05,07,22,17.50
2014,08,05,07,23,17.60
2014,08,05,07,24,17.60
2014,08,05,07,25,17.60
2014,08,05,07,26,17.60
2014,08,05,07,27,17.60
2014,08,05,07,28,17.60
2014,08,05,07,29,17.60
2014,08,05,07,30,17.50
2014,08,05,07,31,17.50
2014,08,05,07,32,17.50
2014,08,05,07,33,17.40
2014,08,05,07,34,17.40
2014,08,05,07,35,17.40
2014,08,05,07,36,17.40
2014,08,05,07,37,17.40
2014,08,05,07,38,17.40
2014,08,05,07,39,17.40
2014,08,05,07,40,17.40
2014,08,05,07,41,17.40
2014,08,05,07,42,17.40
2014,08,05,07,43,17.30
2014,08,05,07,44,17.30
2014,08,05,07,45,17.30
2014,08,05,07,46,17.30
2014,08,05,07,47,17.20
2014,08,05,07,48,17.20
2014,08,05,07,49,17.20
2014,08,05,07,50,17.20
2014,08,05,07,51,17.20
2014,08,05,07,52,17.20
2014,08,05,07,53,17.20
2014,08,05,07,54,17.20
2014,08,05,07,55,17.10
2014,08,05,07,56,17.10
2014,08,05,07,57,17.10
2014,08,05,07,58,17.10
2014,08,05,07,59,17.10
2014,08,05,08,00,17.10
2014,08,05,08,01,17.10
2014,08,05,08,02,17.10
2014,08,05,08,03,17.20
2014,08,05,08,04,17.20
2014,08,05,08,05,17.20
2014,08,05,08,06,17.30
2014,08,05,08,07,17.30
2014,08,05,08,08,17.30
2014,08,05,08,09,17.30
2014,08,05,08,10,17.40
2014,08,05,08,11,17.40
2014,08,05,08,12,17.50
2014,08,05,08,13,17.50
2014,08,05,08,14,17.60
2014,08,05,08,15,17.60
2014,08,05,08,16,17.70
2014,08,05,08,17,17.70
2014,08,05,08,18,17.70
2014,08,05,08,19,17.80
2014,08,05,08,20,17.80
2014,08,05,08,21,17.80
2014,08,05,08,22,17.80
2014,08,05,08,23,17.80
2014,08,05,08,24,17.80
2014,08,05,08,25,17.90
2014,08,05,08,26,17.90
2014,08,05,08,27,18.00
2014,08,05,08,28,18.00
2014,08,05,08,29,18.00
2014,08,05,08,30,18.10
2014,08,05,08,31,18.10
2014,08,05,08,32,18.20
2014,08,05,08,33,18.20
2014,08,05,08,34,18.30
2014,08,05,08,35,18.30
2014,08,05,08,36,18.30
2014,08,05,08,37,18.40
2014,08,05,08,38,18.40
2014,08,05,08,39,18.40
2014,08,05,08,40,18.40
2014,08,05,08,41,18.40
2014,08,05,08,42,18.30
2014,08,05,08,43,18.30
2014,08,05,08,44,18.40
2014,08,05,08,45,18.40
2014,08,05,08,46,18.50
2014,08,05,08,47,18.50
2014,08,05,08,48,18.60
2014,08,05,08,49,18.60
2014,08,05,08,50,18.70
2014,08,05,08,51,18.70
2014,08,05,08,52,18.80
2014,08,05,08,53,18.80
2014,08,05,08,54,18.80
2014,08,05,08,55,18.80
2014,08,05,08,56,18.80
2014,08,05,08,57,18.80
2014,08,05,08,58,18.80
2014,08,05,08,59,18.80
2014,08,05,09,00,18.80
2014,08,05,09,01,18.90
2014,08,05,09,02,18.90
2014,08,05,09,03,18.90
2014,08,05,09,04,18.90
2014,08,05,09,05,19.00
2014,08,05,09,06,19.00
2014,08,05,09,07,19.10
2014,08,05,09,08,19.10
2014,08,05,09,09,19.20
2014,08,05,09,10,19.30
2014,08,05,09,11,19.30
2014,08,05,09,12,19.30
2014,08,05,09,13,19.40
2014,08,05,09,14,19.40
2014,08,05,09,15,19.40
2014,08,05,09,16,19.50
2014,08,05,09,17,19.50
2014,08,05,09,18,19.60
2014,08,05,09,19,19.60
2014,08,05,09,20,19.60
2014,08,05,09,21,19.70
2014,08,05,09,22,19.70
2014,08,05,09,23,19.70
2014,08,05,09,24,19.80
2014,08,05,09,25,19.80
2014,08,05,09,26,19.90
2014,08,05,09,27,20.00
2014,08,05,09,28,20.00
2014,08,05,09,29,20.10
2014,08,05,09,30,20.20
2014,08,05,09,31,20.20
2014,08,05,09,32,20.20
2014,08,05,09,33,20.30
2014,08,05,09,34,20.30
2014,08,05,09,35,20.40
2014,08,05,09,36,20.40
2014,08,05,09,37,20.50
2014,08,05,09,38,20.60
2014,08,05,09,39,20.60
2014,08,05,09,40,20.70
2014,08,05,09,41,20.80
2014,08,05,09,42,20.80
2014,08,05,09,43,20.80
2014,08,05,09,44,20.90
2014,08,05,09,45,20.90
2014,08,05,09,46,20.90
2014,08,05,09,47,21.00
2014,08,05,09,48,21.00
2014,08,05,09,49,21.00
2014,08,05,09,50,21.10
2014,08,05,09,51,21.20
2014,08,05,09,52,21.20
2014,08,05,09,53,21.30
2014,08,05,09,54,21.30
2014,08,05,09,55,21.30
2014,08,05,09,56,21.30
2014,08,05,09,57,21.30
2014,08,05,09,58,21.40
2014,08,05,09,59,21.50
2014,08,05,10,00,21.50
2014,08,05,10,01,21.60
2014,08,05,10,02,21.60
2014,08,05,10,03,21.70
2014,08,05,10,04,21.70
2014,08,05,10,05,21.70
2014,08,05,10,06,21.70
2014,08,05,10,07,21.70
2014,08,05,10,08,21.80
2014,08,05,10,09,21.90
2014,08,05,10,10,21.90
2014,08,05,10,11,21.90
2014,08,05,10,12,22.00
2014,08,05,10,13,22.00
2014,08,05,10,14,22.00
2014,08,05,10,15,22.00
2014,08,05,10,16,22.00
2014,08,05,10,17,22.10
2014,08,05,10,18,22.30
2014,08,05,10,19,22.30
2014,08,05,10,20,22.30
2014,08,05,10,21,22.30
2014,08,05,10,22,22.40
2014,08,05,10,23,22.40
2014,08,05,10,24,22.40
2014,08,05,10,25,22.40
2014,08,05,10,26,22.50
2014,08,05,10,27,22.60
2014,08,05,10,28,22.60
2014,08,05,10,29,22.70
2014,08,05,10,30,22.70
2014,08,05,10,31,22.70
2014,08,05,10,32,22.70
2014,08,05,10,33,22.70
2014,08,05,10,34,22.70
2014,08,05,10,35,22.60
2014,08,05,10,36,22.60
2014,08,05,10,37,22.60
2014,08,05,10,38,22.60
2014,08,05,10,39,22.60
2014,08,05,10,40,22.60
2014,08,05,10,41,22.60
2014,08,05,10,42,22.70
2014,08,05,10,43,22.70
2014,08,05,10,44,22.80
2014,08,05,10,45,22.80
2014,08,05,10,46,22.80
2014,08,05,10,47,22.80
2014,08,05,10,48,22.80
2014,08,05,10,49,22.90
2014,08,05,10,50,22.90
2014,08,05,10,51,23.00
2014,08,05,10,52,23.10
2014,08,05,10,53,23.10
2014,08,05,10,54,23.20
2014,08,05,10,55,23.30
2014,08,05,10,56,23.30
2014,08,05,10,57,23.40
2014,08,05,10,58,23.50
2014,08,05,10,59,23.60
2014,08,05,11,00,23.60
2014,08,05,11,01,23.60
2014,08,05,11,02,23.70
2014,08,05,11,03,23.70
2014,08,05,11,04,23.60
2014,08,05,11,05,23.50
2014,08,05,11,06,23.40
2014,08,05,11,07,23.30
2014,08,05,11,08,23.30
2014,08,05,11,09,23.30
2014,08,05,11,10,23.30
2014,08,05,11,11,23.30
2014,08,05,11,12,23.30
2014,08,05,11,13,23.20
2014,08,05,11,14,23.20
2014,08,05,11,15,23.20
2014,08,05,11,16,23.20
2014,08,05,11,17,23.20
2014,08,05,11,18,23.20
2014,08,05,11,19,23.30
2014,08,05,11,20,23.30
2014,08,05,11,21,23.40
2014,08,05,11,22,23.50
2014,08,05,11,23,23.60
2014,08,05,11,24,23.70
2014,08,05,11,25,23.70
2014,08,05,11,26,23.70
2014,08,05,11,27,23.70
2014,08,05,11,28,23.80
2014,08,05,11,29,23.80
2014,08,05,11,30,23.80
2014,08,05,11,31,23.70
2014,08,05,11,32,23.50
2014,08,05,11,33,23.50
2014,08,05,11,34,23.40
2014,08,05,11,35,23.40
2014,08,05,11,36,23.40
2014,08,05,11,37,23.40
2014,08,05,11,38,23.30
2014,08,05,11,39,23.30
2014,08,05,11,40,23.20
2014,08,05,11,41,23.20
2014,08,05,11,42,23.20
2014,08,05,11,43,23.20
2014,08,05,11,44,23.20
2014,08,05,11,45,23.20
2014,08,05,11,46,23.30
2014,08,05,11,47,23.30
2014,08,05,11,48,23.50
2014,08,05,11,49,23.60
2014,08,05,11,50,23.70
2014,08,05,11,51,23.80
2014,08,05,11,52,23.80
2014,08,05,11,53,23.90
2014,08,05,11,54,23.90
2014,08,05,11,55,23.90
2014,08,05,11,56,23.90
2014,08,05,11,57,24.00
2014,08,05,11,58,24.10
2014,08,05,11,59,24.10
2014,08,05,12,00,24.10
2014,08,05,12,01,24.10
2014,08,05,12,02,24.10
2014,08,05,12,03,24.10
2014,08,05,12,04,24.20
2014,08,05,12,05,24.30
2014,08,05,12,06,24.30
2014,08,05,12,07,24.30
2014,08,05,12,08,24.40
2014,08,05,12,09,24.40
2014,08,05,12,10,24.40
2014,08,05,12,11,24.50
2014,08,05,12,12,24.50
2014,08,05,12,13,24.40
2014,08,05,12,14,24.50
2014,08,05,12,15,24.50
2014,08,05,12,16,24.50
2014,08,05,12,17,24.50
2014,08,05,12,18,24.50
2014,08,05,12,19,24.40
2014,08,05,12,20,24.40
2014,08,05,12,21,24.40
2014,08,05,12,22,24.40
2014,08,05,12,23,24.40
2014,08,05,12,24,24.30
2014,08,05,12,25,24.30
2014,08,05,12,26,24.30
2014,08,05,12,27,24.30
2014,08,05,12,28,24.30
2014,08,05,12,29,24.20
2014,08,05,12,30,24.10
2014,08,05,12,31,24.10
2014,08,05,12,32,24.10
2014,08,05,12,33,24.10
2014,08,05,12,34,24.10
2014,08,05,12,35,24.20
2014,08,05,12,36,24.20
2014,08,05,12,37,24.20
2014,08,05,12,38,24.30
2014,08,05,12,39,24.30
2014,08,05,12,40,24.30
2014,08,05,12,41,24.30
2014,08,05,12,42,24.40
2014,08,05,12,43,24.40
2014,08,05,12,44,24.50
2014,08,05,12,45,24.50
2014,08,05,12,46,24.60
2014,08,05,12,47,24.60
2014,08,05,12,48,24.60
2014,08,05,12,49,24.60
2014,08,05,12,50,24.50
2014,08,05,12,51,24.50
2014,08,05,12,52,24.50
2014,08,05,12,53,24.60
2014,08,05,12,54,24.60
2014,08,05,12,55,24.60
2014,08,05,12,56,24.60
2014,08,05,12,57,24.60
2014,08,05,12,58,24.60
2014,08,05,12,59,24.60
2014,08,05,13,00,24.60
2014,08,05,13,01,24.70
2014,08,05,13,02,24.70
2014,08,05,13,03,24.80
2014,08,05,13,04,24.80
2014,08,05,13,05,24.90
2014,08,05,13,06,25.00
2014,08,05,13,07,25.00
2014,08,05,13,08,25.00
2014,08,05,13,09,25.00
2014,08,05,13,10,25.10
2014,08,05,13,11,25.10
2014,08,05,13,12,25.10
2014,08,05,13,13,25.10
2014,08,05,13,14,25.20
2014,08,05,13,15,25.20
2014,08,05,13,16,25.20
2014,08,05,13,17,25.20
2014,08,05,13,18,25.20
2014,08,05,13,19,25.10
2014,08,05,13,20,25.10
2014,08,05,13,21,25.10
2014,08,05,13,22,25.20
2014,08,05,13,23,25.20
2014,08,05,13,24,25.20
2014,08,05,13,25,25.30
2014,08,05,13,26,25.20
2014,08,05,13,27,25.20
2014,08,05,13,28,25.20
2014,08,05,13,29,25.20
2014,08,05,13,30,25.20
2014,08,05,13,31,25.30
2014,08,05,13,32,25.30
2014,08,05,13,33,25.30
2014,08,05,13,34,25.30
2014,08,05,13,35,25.20
2014,08,05,13,36,25.30
2014,08,05,13,37,25.30
2014,08,05,13,38,25.40
2014,08,05,13,39,25.40
2014,08,05,13,40,25.40
2014,08,05,13,41,25.40
2014,08,05,13,42,25.40
2014,08,05,13,43,25.50
2014,08,05,13,44,25.50
2014,08,05,13,45,25.50
2014,08,05,13,46,25.60
2014,08,05,13,47,25.60
2014,08,05,13,48,25.40
2014,08,05,13,49,25.40
2014,08,05,13,50,25.30
2014,08,05,13,51,25.30
2014,08,05,13,52,25.40
2014,08,05,13,53,25.60
2014,08,05,13,54,25.70
2014,08,05,13,55,25.80
2014,08,05,13,56,25.90
2014,08,05,13,57,25.90
2014,08,05,13,58,25.80
2014,08,05,13,59,25.80
2014,08,05,14,00,25.70
2014,08,05,14,01,25.70
2014,08,05,14,02,25.70
2014,08,05,14,03,25.70
2014,08,05,14,04,25.70
2014,08,05,14,05,25.60
2014,08,05,14,06,25.60
2014,08,05,14,07,25.60
2014,08,05,14,08,25.60
2014,08,05,14,09,25.60
2014,08,05,14,10,25.60
2014,08,05,14,11,25.60
2014,08,05,14,12,25.60
2014,08,05,14,13,25.50
2014,08,05,14,14,25.50
2014,08,05,14,15,25.50
2014,08,05,14,16,25.50
2014,08,05,14,17,25.50
2014,08,05,14,18,25.60
2014,08,05,14,19,25.60
2014,08,05,14,20,25.70
2014,08,05,14,21,25.70
2014,08,05,14,22,25.70
2014,08,05,14,23,25.80
2014,08,05,14,24,25.80
2014,08,05,14,25,25.80
2014,08,05,14,26,25.80
2014,08,05,14,27,25.80
2014,08,05,14,28,25.70
2014,08,05,14,29,25.60
2014,08,05,14,30,25.60
2014,08,05,14,31,25.60
2014,08,05,14,32,25.70
2014,08,05,14,33,25.70
2014,08,05,14,34,25.80
2014,08,05,14,35,25.70
2014,08,05,14,36,25.70
2014,08,05,14,37,25.60
2014,08,05,14,38,25.60
2014,08,05,14,39,25.70
2014,08,05,14,40,25.70
2014,08,05,14,41,25.80
2014,08,05,14,42,25.80
2014,08,05,14,43,25.80
2014,08,05,14,44,25.80
2014,08,05,14,45,25.90
2014,08,05,14,46,25.90
2014,08,05,14,47,25.90
2014,08,05,14,48,25.90
2014,08,05,14,49,26.10
2014,08,05,14,50,26.20
2014,08,05,14,51,26.20
2014,08,05,14,52,26.20
2014,08,05,14,53,26.20
2014,08,05,14,54,26.20
2014,08,05,14,55,26.20
2014,08,05,14,56,26.10
2014,08,05,14,57,26.00
2014,08,05,14,58,25.90
2014,08,05,14,59,25.80
2014,08,05,15,00,25.80
2014,08,05,15,01,25.80
2014,08,05,15,02,25.70
2014,08,05,15,03,25.80
2014,08,05,15,04,25.80
2014,08,05,15,05,25.80
2014,08,05,15,06,25.90
2014,08,05,15,07,25.90
2014,08,05,15,08,26.00
2014,08,05,15,09,26.10
2014,08,05,15,10,26.20
2014,08,05,15,11,26.20
2014,08,05,15,12,26.20
2014,08,05,15,13,26.20
2014,08,05,15,14,26.20
2014,08,05,15,15,26.20
2014,08,05,15,16,26.20
2014,08,05,15,17,26.20
2014,08,05,15,18,26.20
2014,08,05,15,19,26.20
2014,08,05,15,20,26.20
2014,08,05,15,21,26.10
2014,08,05,15,22,26.10
2014,08,05,15,23,26.10
2014,08,05,15,24,26.10
2014,08,05,15,25,26.10
2014,08,05,15,26,26.10
2014,08,05,15,27,26.20
2014,08,05,15,28,26.30
2014,08,05,15,29,26.40
2014,08,05,15,30,26.40
2014,08,05,15,31,26.40
2014,08,05,15,32,26.40
2014,08,05,15,33,26.50
2014,08,05,15,34,26.50
2014,08,05,15,35,26.60
2014,08,05,15,36,26.60
2014,08,05,15,37,26.50
2014,08,05,15,38,26.50
2014,08,05,15,39,26.50
2014,08,05,15,40,26.50
2014,08,05,15,41,26.60
2014,08,05,15,42,26.60
2014,08,05,15,43,26.60
2014,08,05,15,44,26.60
2014,08,05,15,45,26.60
2014,08,05,15,46,26.70
2014,08,05,15,47,26.70
2014,08,05,15,48,26.80
2014,08,05,15,49,26.80
2014,08,05,15,50,26.80
2014,08,05,15,51,26.70
2014,08,05,15,52,26.70
2014,08,05,15,53,26.60
2014,08,05,15,54,26.50
2014,08,05,15,55,26.50
2014,08,05,15,56,26.50
2014,08,05,15,57,26.40
2014,08,05,15,58,26.40
2014,08,05,15,59,26.30
2014,08,05,16,00,26.30
2014,08,05,16,01,26.30
2014,08,05,16,02,26.30
2014,08,05,16,03,26.30
2014,08,05,16,04,26.40
2014,08,05,16,05,26.50
2014,08,05,16,06,26.50
2014,08,05,16,07,26.40
2014,08,05,16,08,26.40
2014,08,05,16,09,26.40
2014,08,05,16,10,26.30
2014,08,05,16,11,26.30
2014,08,05,16,12,26.30
2014,08,05,16,13,26.30
2014,08,05,16,14,26.40
2014,08,05,16,15,26.40
2014,08,05,16,16,26.40
2014,08,05,16,17,26.40
2014,08,05,16,18,26.30
2014,08,05,16,19,26.30
2014,08,05,16,20,26.30
2014,08,05,16,21,26.30
2014,08,05,16,22,26.30
2014,08,05,16,23,26.30
2014,08,05,16,24,26.30
2014,08,05,16,25,26.30
2014,08,05,16,26,26.20
2014,08,05,16,27,26.20
2014,08,05,16,28,26.20
2014,08,05,16,29,26.10
2014,08,05,16,30,26.20
2014,08,05,16,31,26.20
2014,08,05,16,32,26.20
2014,08,05,16,33,26.20
2014,08,05,16,34,26.30
2014,08,05,16,35,26.30
2014,08,05,16,36,26.40
2014,08,05,16,37,26.40
2014,08,05,16,38,26.40
2014,08,05,16,39,26.40
2014,08,05,16,40,26.30
2014,08,05,16,41,26.30
2014,08,05,16,42,26.30
2014,08,05,16,43,26.30
2014,08,05,16,44,26.30
2014,08,05,16,45,26.40
2014,08,05,16,46,26.40
2014,08,05,16,47,26.40
2014,08,05,16,48,26.50
2014,08,05,16,49,26.50
2014,08,05,16,50,26.50
2014,08,05,16,51,26.50
2014,08,05,16,52,26.50
2014,08,05,16,53,26.50
2014,08,05,16,54,26.50
2014,08,05,16,55,26.50
2014,08,05,16,56,26.50
2014,08,05,16,57,26.50
2014,08,05,16,58,26.50
2014,08,05,16,59,26.50
2014,08,05,17,00,26.60
2014,08,05,17,01,26.60
2014,08,05,17,02,26.60
2014,08,05,17,03,26.60
2014,08,05,17,04,26.60
2014,08,05,17,05,26.60
2014,08,05,17,06,26.60
2014,08,05,17,07,26.60
2014,08,05,17,08,26.60
2014,08,05,17,09,26.70
2014,08,05,17,10,26.70
2014,08,05,17,11,26.70
2014,08,05,17,12,26.70
2014,08,05,17,13,26.70
2014,08,05,17,14,26.70
2014,08,05,17,15,26.70
2014,08,05,17,16,26.70
2014,08,05,17,17,26.70
2014,08,05,17,18,26.70
2014,08,05,17,19,26.70